Torna al catalogo

YAOGAN 40-03-02

AttivoMilitarePO
NORAD 65545·PAYLOAD·🇨🇳 China
Questo nome del satellite non è ancora stato confermato da fonti ufficiali.

Lanciato Sep 6, 2025 da Taiyuan Satellite Launch Center

Loading…

Prossimi Passaggi (prossime 24 ore)

TLE

AggiornatoSource: Space-Track

Epoca: Sep 13, 2026, 19:19 UTC

1 65545U 25199B   26256.80533224  .00000095  00000-0  41447-4 0  9997
2 65545  85.9968   4.3212 0001885 107.2027 252.9362 14.12462833 52544

Traccia YAOGAN 40-03-02 in tempo reale con AllMySat

Download on the App Store